Regional Weather Roundup
Issued by NWS

Home | Current Version | Previous Version | Graphics & Text | Print | Product List | Glossary On
Versions: 1 2 3 4 5 6 7 8 9 10 11 12 13 14 15 16 17 18 19 20 21 22 23 24 25 26 27 28 29 30 31 32 33 34 35 36 37 38 39 40 41 42 43 44 45 46 47 48 49 50
000
ASUS43 KLOT 201302
RWRIL

ILLINOIS REGIONAL WEATHER ROUNDUP
NATIONAL WEATHER SERVICE CHICAGO/ROMEOVILLE IL
700 AM CST FRI JAN 20 2017

NOTE: "FAIR" INDICATES FEW OR NO CLOUDS BELOW 12,000 FEET WITH NO
SIGNIFICANT WEATHER AND/OR OBSTRUCTIONS TO VISIBILITY.

* THESE STATIONS ARE NOT UNDER NWS QUALITY CONTROL. THEY ALSO MAY NOT
  REPORT WEATHER SUCH AS PRECIPITATION OR FOG.

ILZ001-002-007-009-015-016-024-201400-
NORTHWEST ILLINOIS

CITY           SKY/WX    TMP DP  RH WIND       PRES   REMARKS
MOLINE         FOG       37  35  92 E6        29.61S VSB 3/4 WCI  32
STERLING*      MIX PCPN  37  36  96 NE7       29.63F FOG     WCI  32
SAVANNA*       CLOUDY    36  36  99 NE5       29.63F FOG     WCI  32
$$

ILZ003-004-008-010-011-017-018-201400-
NORTH CENTRAL ILLINOIS

CITY           SKY/WX    TMP DP  RH WIND       PRES   REMARKS
ROCKFORD       DRIZZLE   38  36  92 NE5       29.64S FOG     WCI  34
FREEPORT*      FOG       34  34  99 NE5       29.65F VSB 1/2 WCI  30
ROCHELLE*      CLOUDY    37  37 100 CALM      29.64R FOG
DE KALB*       CLOUDY    37  37  98 E5        29.63R FOG     WCI  34
$$

ILZ005-006-012>014-019>023-201400-
NORTHEAST ILLINOIS

CITY           SKY/WX    TMP DP  RH WIND       PRES   REMARKS
CHICAGO-OHARE  LGT RAIN  38  37  97 NE7       29.62S FOG     WCI  33
CHICAGO-MIDWAY LGT RAIN  38  37  97 E8        29.62S FOG     WCI  32
AURORA         CLOUDY    39  37  92 NE7       29.62S WCI  34
LANSING*       RAIN      37  37 100 NE6       29.62S WCI  32
JOLIET*        CLOUDY    39  39  99 NE5       29.62S FOG
WAUKEGAN       FOG       37  36  96 NE7       29.63F VSB 1/2 WCI  32
DUPAGE AIRPORT LGT RAIN  38  36  92 E7        29.61S FOG     WCI  33
WHEELING       CLOUDY    38  36  92 E7        29.63F FOG     WCI  33
MORRIS*        LGT RAIN  37  36  97 CALM      29.62R
ROMEOVILLE*    LGT RAIN  37  37 100 NE8       29.62S WCI  31
NORTHERLY ISL    N/A     35  35 100 N3          N/A
$$

LMZ740>746-201400-
SOUTHERN LAKE MICHIGAN

STATION/POSITION SKY/WX   TEMP    WIND        PRES    VSBY  WAVE
                          AIR SEA DIR/SP/G                  HT/PER
                          (F)     (DEG/KT/KT) (MB)    (MI)  (FT/S)
HARRISON CRIB              38      60/ 11/ 11   N/A
BURNHAM HARBOR             36      20/  3/  7   N/A
CALUMET HARBOR             35      20/  5/  7 1002.8S
BURNS HARBOR               35      90/ 10/ 11 1003.7S
MICHIGAN CITY              34      40/  7/  8   N/A
$$

ILZ025>027-034>036-040-047-049-050-058-095>099-201400-
WEST-CENTRAL ILLINOIS

CITY           SKY/WX    TMP DP  RH WIND       PRES   REMARKS
QUINCY         FOG       41  41 100 CALM      29.62R VSB 1/4
GALESBURG*     CLOUDY    36  36 100 E3        29.61R FOG
MACOMB*        FOG       37  37 100 CALM      29.64R VSB 1/2
JACKSONVILLE*  FOG       41  41  99 CALM      29.61R VSB 1/2
PITTSFIELD*    FOG       43  43 100 S5        29.65R VSB 1/2
$$

ILZ028>032-037-038-041>044-048-051>054-059>061-201400-
CENTRAL ILLINOIS

CITY           SKY/WX    TMP DP  RH WIND       PRES   REMARKS
BLOOMINGTON    FOG       39  39 100 N6        29.60F VSB 3/4 WCI  35
DECATUR        HAZE      44  32  62 CALM      29.61S VSB 3/4
PEORIA         FOG       38  38 100 CALM      29.62R VSB 1
LACON*         CLOUDY    36  36 100 CALM      29.62R FOG
LINCOLN*       FOG       42  42 100 CALM      29.62S VSB 1/2
SPRINGFIELD    FOG       44  42  93 CALM      29.63R VSB 3/4
TAYLORVILLE    CLOUDY    44  44 100 SW5       29.63R FOG
$$

ILZ033-039-045-046-055>057-062-063-201400-
EAST-CENTRAL ILLINOIS

CITY           SKY/WX    TMP DP  RH WIND       PRES   REMARKS
CHAMPAIGN      FOG       43  41  93 S5        29.60F VSB 1/2
MATTOON        FOG       46  45  96 W5        29.62R VSB 1/4
PARIS*         CLOUDY    45  45 100 W6        29.63R FOG
$$

ILZ079-100>102-201400-
SOUTHWEST ILLINOIS

CITY           SKY/WX    TMP DP  RH WIND       PRES   REMARKS
ALTON          DRIZZLE   46  46 100 S6        29.65R
BELLEVILLE     CLOUDY    48  48 100 CALM      29.64R
CAHOKIA*       CLOUDY    48  46  93 S5        29.64R
SPARTA*        CLOUDY    49  47  94 S3        29.66S
$$

ILZ064>066-069>071-074>076-080>082-084>086-088>090-092>094-201400-
SOUTH-CENTRAL ILLINOIS

CITY           SKY/WX    TMP DP  RH WIND       PRES   REMARKS
CARBONDALE     CLOUDY    50  49  96 S6        29.68R
CAIRO*         CLOUDY    51  50  95 S3        29.71R
EFFINGHAM*     FOG       47  47 100 S8        29.67R VSB 1
MARION         CLOUDY    52  52 100 SW6       29.69R
MT. VERNON     CLOUDY    50  50 100 SW8       29.67R
CENTRALIA*     CLOUDY    50  50 100 S7        29.66R FOG
SALEM*         FOG       49  48  95 SW5       29.66R VSB 1/4
$$

ILZ067-068-072-073-078-083-087-091-201400-
SOUTHEAST ILLINOIS

CITY           SKY/WX    TMP DP  RH WIND       PRES   REMARKS
LAWRENCEVILLE  CLOUDY    52  52 100 SW14      29.66R FOG
FLORA*         CLOUDY    51  50  97 SW6       29.67R FOG
FAIRFIELD*     CLOUDY    51  51 100 SW3       29.67R
HARRISBURG*    CLOUDY    52  50  93 W8        29.69R
ROBINSON*      CLOUDY    50  50 100 SW5       29.65R FOG
CARMI*         CLOUDY    53  50  91 SW9       29.68R
$$

ABBREVIATIONS USED IN REMARKS
   TC - TEMPERATURE IN CELSIUS
  WCI - WIND CHILL INDEX
   HX - HEAT INDEX
  VSB - VISIBILITY
$$





USA.gov is the U.S. government's official web portal to all federal, state and local government web resources and services.